Location: Bouillancy
(49.1149°N, 2.9308°E)
Time: 22:40:41
(UTC+00:00)

Cosmos 1340 Rocket - Pass Details

Date: 30 September 2020
Orbit: 529 x 558 km, 81.2° (Epoch: 25 October)

Event Time Altitude Azimuth Distance (km) Brightness Sun altitude
Rises 18:31:19 0° 171° (S) 2,688 6.2 -11.1°
Reaches altitude 10° 18:33:32 10° 164° (SSE) 1,807 5.2 -11.5°
Maximum altitude 18:37:16 40° 95° (E) 821 3.2 -12.1°
Drops below altitude 10° 18:41:03 10° 25° (NNE) 1,839 5.3 -12.7°
Sets 18:43:20 0° 18° (NNE) 2,743 6.3 -13.1°
